Location: Brienzwiler
(46.7508°N, 8.1014°E)
Time: 07:34:12
(UTC+00:00)

GP-B - Pass Details

Date: 05 July 2020
Orbit: 631 x 635 km, 89.8° (Epoch: 06 August)

Event Time Altitude Azimuth Distance (km) Brightness Sun altitude
Rises 23:41:10 0° 352° (N) 2,941 8.0 -20.6°
Reaches altitude 10° 23:43:35 10° 343° (NNW) 2,027 6.7 -20.5°
Maximum altitude 23:47:30 31° 281° (W) 1,109 4.4 -20.5°
Enters shadow 23:48:51 26° 248° (WSW) 1,250 4.4 -20.5°
